Check out our new BloomSky Weather System.

Active alerts


No alerts


Thunder radar  blitzortung!


Rain radar more information rain snow radar


Visit our other weather sites:

Template documentation
and downloads

And another site



Weather Underground History page Text

Daily Summary for January 21, 2018 Units:  Metric    English   Both
« Previous Day
Next Day »
Daily Weekly Monthly Yearly Custom
  High: Low: Average:
Temperature: -17.8 °C 19 °C 20.5 °C
Dew Point: -17.8 °C 18.3 °C 18.9 °C
Humidity: Humidity % 76 % 91 %
Wind Speed: 0 km/h 1.6 km/h 9.5 km/h
Wind Gust: 0 km/h - -
Wind:- - SSE
Pressure: 0 hPa 1010.7 hPa -
Precipitation: 0 mm    
Historical Graphs
 
 
Tabular Data for January 21, 2018
Time Temperature Dew Point Pressure Wind Wind Speed Wind Gust Humidity Rainfall Rate (Hourly)
-17.8 °C -17.8 °C 0 hPa Calm     Humidity % 0 mm
00:02 19.4 °C 18.6 °C 1016.8 hPa SSE 14.5 km/h 22.5 km/h 95 % 0 mm
00:07 19.4 °C 18.6 °C 1016.5 hPa SSE 9.7 km/h 22.5 km/h 95 % 0 mm
00:12 19.4 °C 18.6 °C 1016.5 hPa SSE 4.8 km/h 22.5 km/h 95 % 0 mm
00:17 19.4 °C 18.6 °C 1016.5 hPa ESE 9.7 km/h 17.7 km/h 95 % 0 mm
00:27 19.4 °C 18.6 °C 1016.5 hPa SSE 14.5 km/h 20.9 km/h 95 % 0 mm
00:32 19.4 °C 18.6 °C 1016.5 hPa SE 11.3 km/h 20.9 km/h 95 % 0 mm
00:37 19.4 °C 18.6 °C 1016.5 hPa SSW 8 km/h 22.5 km/h 95 % 0 mm
00:42 19.4 °C 18.6 °C 1016.1 hPa SSE 9.7 km/h 22.5 km/h 95 % 0 mm
00:47 19.4 °C 18.6 °C 1016.1 hPa ESE 8 km/h 22.5 km/h 95 % 0 mm
00:52 19.4 °C 18.6 °C 1016.1 hPa SSW 6.4 km/h 19.3 km/h 95 % 0 mm
00:57 19.4 °C 18.6 °C 1016.1 hPa SE 6.4 km/h 19.3 km/h 95 % 0 mm
01:02 19.4 °C 18.6 °C 1016.1 hPa SE 16.1 km/h 19.3 km/h 95 % 0 mm
01:08 19.4 °C 18.6 °C 1016.1 hPa SSW 8 km/h 20.9 km/h 95 % 0 mm
01:13 19.4 °C 18.6 °C 1016.1 hPa SSE 8 km/h 20.9 km/h 95 % 0 mm
01:18 19.4 °C 18.6 °C 1016.1 hPa SSE 6.4 km/h 20.9 km/h 95 % 0 mm
01:23 19.5 °C 18.7 °C 1016.1 hPa SSW 8 km/h 17.7 km/h 95 % 0 mm
01:28 19.5 °C 18.7 °C 1016.1 hPa South 6.4 km/h 17.7 km/h 95 % 0 mm
01:33 19.5 °C 18.7 °C 1016.1 hPa SSW 8 km/h 17.7 km/h 95 % 0 mm
01:38 19.5 °C 18.7 °C 1016.1 hPa South 9.7 km/h 17.7 km/h 95 % 0 mm
01:43 19.5 °C 18.7 °C 1016.1 hPa SSW 8 km/h 17.7 km/h 95 % 0 mm
01:48 19.5 °C 18.7 °C 1016.1 hPa SSW 8 km/h 14.5 km/h 95 % 0 mm
01:53 19.5 °C 18.7 °C 1016.1 hPa SSE 4.8 km/h 17.7 km/h 95 % 0 mm
01:58 19.4 °C 18.6 °C 1016.1 hPa SSE 6.4 km/h 19.3 km/h 95 % 0 mm
02:03 19.4 °C 18.6 °C 1015.8 hPa SSE 3.2 km/h 19.3 km/h 95 % 0 mm
02:08 19.4 °C 18.6 °C 1015.8 hPa SSE 12.9 km/h 19.3 km/h 95 % 0 mm
02:13 19.4 °C 18.6 °C 1015.8 hPa SE 14.5 km/h 14.5 km/h 95 % 0 mm
02:18 19.4 °C 18.6 °C 1015.8 hPa SSE 9.7 km/h 17.7 km/h 95 % 0 mm
02:23 19.4 °C 18.6 °C 1015.8 hPa SSW 3.2 km/h 17.7 km/h 95 % 0 mm
02:28 19.4 °C 18.6 °C 1015.8 hPa ESE 12.9 km/h 17.7 km/h 95 % 0 mm
02:33 19.4 °C 18.6 °C 1015.5 hPa ESE 6.4 km/h 17.7 km/h 95 % 0 mm
02:38 19.4 °C 18.6 °C 1015.5 hPa South 6.4 km/h 12.9 km/h 95 % 0 mm
02:48 19.4 °C 18.6 °C 1015.5 hPa SSE 9.7 km/h 17.7 km/h 95 % 0 mm
02:53 19.4 °C 18.6 °C 1015.5 hPa SSW 8 km/h 20.9 km/h 95 % 0 mm
02:58 19.4 °C 18.6 °C 1015.5 hPa SE 12.9 km/h 20.9 km/h 95 % 0 mm
03:03 19.4 °C 18.6 °C 1015.5 hPa South 6.4 km/h 20.9 km/h 95 % 0 mm
03:08 19.5 °C 18.7 °C 1015.5 hPa SSW 8 km/h 20.9 km/h 95 % 0 mm
03:14 19.5 °C 18.7 °C 1015.8 hPa SSW 14.5 km/h 20.9 km/h 95 % 0 mm
03:19 19.5 °C 18.7 °C 1015.5 hPa SSE 6.4 km/h 20.9 km/h 95 % 0 mm
03:24 19.5 °C 18.7 °C 1015.5 hPa SSE 12.9 km/h 20.9 km/h 95 % 0 mm
03:29 19.6 °C 18.8 °C 1015.5 hPa SSW 11.3 km/h 19.3 km/h 95 % 0 mm
03:34 19.6 °C 18.8 °C 1015.5 hPa SSE 6.4 km/h 19.3 km/h 95 % 0 mm
03:39 19.6 °C 18.8 °C 1015.5 hPa SSE 11.3 km/h 19.3 km/h 95 % 0 mm
03:44 19.6 °C 18.8 °C 1015.1 hPa SE 8 km/h 19.3 km/h 95 % 0 mm
03:49 19.6 °C 18.8 °C 1015.5 hPa SSE 8 km/h 22.5 km/h 95 % 0 mm
03:54 19.6 °C 18.8 °C 1015.1 hPa South 3.2 km/h 22.5 km/h 95 % 0 mm
03:59 19.5 °C 18.7 °C 1015.1 hPa South 8 km/h 22.5 km/h 95 % 0 mm
04:04 19.5 °C 18.7 °C 1015.1 hPa SE 4.8 km/h 16.1 km/h 95 % 0 mm
04:09 19.4 °C 18.6 °C 1015.1 hPa SE 8 km/h 16.1 km/h 95 % 0 mm
04:14 19.4 °C 18.6 °C 1015.1 hPa SE 8 km/h 16.1 km/h 95 % 0 mm
04:19 19.4 °C 18.6 °C 1015.1 hPa SE 4.8 km/h 20.9 km/h 95 % 0 mm
04:24 19.4 °C 18.6 °C 1015.1 hPa SE 9.7 km/h 20.9 km/h 95 % 0 mm
04:29 19.4 °C 18.6 °C 1015.1 hPa South 8 km/h 20.9 km/h 95 % 0 mm
04:34 19.4 °C 18.6 °C 1015.1 hPa ESE 6.4 km/h 19.3 km/h 95 % 0 mm
04:39 19.4 °C 18.6 °C 1015.1 hPa SSE 6.4 km/h 14.5 km/h 95 % 0 mm
04:44 19.4 °C 18.6 °C 1014.8 hPa SSE 4.8 km/h 14.5 km/h 95 % 0 mm
04:49 19.4 °C 18.6 °C 1014.8 hPa SE 6.4 km/h 16.1 km/h 95 % 0 mm
04:54 19.3 °C 18.5 °C 1014.8 hPa SW 8 km/h 16.1 km/h 95 % 0 mm
04:59 19.3 °C 18.5 °C 1014.8 hPa SSE 4.8 km/h 16.1 km/h 95 % 0 mm
05:05 19.3 °C 18.5 °C 1014.8 hPa ESE 14.5 km/h 14.5 km/h 95 % 0 mm
05:10 19.3 °C 18.5 °C 1014.8 hPa SE 6.4 km/h 16.1 km/h 95 % 0 mm
05:15 19.3 °C 18.5 °C 1014.8 hPa SE 6.4 km/h 16.1 km/h 95 % 0 mm
05:20 19.3 °C 18.5 °C 1015.1 hPa SE 9.7 km/h 17.7 km/h 95 % 0 mm
05:25 19.3 °C 18.5 °C 1015.1 hPa SSE 9.7 km/h 17.7 km/h 95 % 0 mm
05:30 19.3 °C 18.5 °C 1014.8 hPa South 9.7 km/h 16.1 km/h 95 % 0 mm
05:35 19.3 °C 18.5 °C 1014.8 hPa SSE 4.8 km/h 17.7 km/h 95 % 0 mm
05:40 19.3 °C 18.5 °C 1014.8 hPa SSW 6.4 km/h 17.7 km/h 95 % 0 mm
05:45 19.3 °C 18.5 °C 1015.1 hPa SSE 14.5 km/h 17.7 km/h 95 % 0 mm
05:50 19.3 °C 18.5 °C 1015.1 hPa SE 11.3 km/h 19.3 km/h 95 % 0 mm
05:55 19.3 °C 18.5 °C 1014.8 hPa SSW 14.5 km/h 19.3 km/h 95 % 0 mm
06:00 19.3 °C 18.5 °C 1014.8 hPa South 8 km/h 19.3 km/h 95 % 0 mm
06:05 19.3 °C 18.5 °C 1015.1 hPa ESE 8 km/h 17.7 km/h 95 % 0 mm
06:10 19.3 °C 18.5 °C 1014.8 hPa SE 9.7 km/h 17.7 km/h 95 % 0 mm
06:15 19.3 °C 18.5 °C 1014.8 hPa SE 8 km/h 16.1 km/h 95 % 0 mm
06:20 19.3 °C 18.5 °C 1014.8 hPa SE 12.9 km/h 16.1 km/h 95 % 0 mm
06:25 19.3 °C 18.5 °C 1014.8 hPa ESE 14.5 km/h 19.3 km/h 95 % 0 mm
06:30 19.3 °C 18.5 °C 1014.8 hPa ESE 8 km/h 19.3 km/h 95 % 0 mm
06:35 19.3 °C 18.5 °C 1014.8 hPa SE 8 km/h 19.3 km/h 95 % 0 mm
06:40 19.3 °C 18.5 °C 1014.8 hPa ESE 11.3 km/h 16.1 km/h 95 % 0 mm
06:45 19.2 °C 18.4 °C 1014.8 hPa ESE 6.4 km/h 14.5 km/h 95 % 0 mm
06:50 19.2 °C 18.4 °C 1014.8 hPa East 8 km/h 16.1 km/h 95 % 0 mm
06:55 19.2 °C 18.4 °C 1014.8 hPa SSE 9.7 km/h 16.1 km/h 95 % 0 mm
07:00 19.2 °C 18.4 °C 1014.4 hPa SE 6.4 km/h 17.7 km/h 95 % 0 mm
07:06 19.1 °C 18.3 °C 1014.4 hPa SE 4.8 km/h 17.7 km/h 95 % 0 mm
07:11 19.1 °C 18.3 °C 1014.4 hPa ESE 9.7 km/h 19.3 km/h 95 % 0 mm
07:16 19.1 °C 18.3 °C 1014.4 hPa SE 6.4 km/h 19.3 km/h 95 % 0 mm
07:21 19.1 °C 18.3 °C 1014.4 hPa SE 6.4 km/h 19.3 km/h 95 % 0 mm
07:26 19.1 °C 18.4 °C 1014.4 hPa SSE 4.8 km/h 16.1 km/h 96 % 0 mm
07:31 19.1 °C 18.4 °C 1014.8 hPa SE 9.7 km/h 14.5 km/h 96 % 0 mm
07:36 19.1 °C 18.4 °C 1014.8 hPa SSE 4.8 km/h 12.9 km/h 96 % 0 mm
07:41 19.1 °C 18.4 °C 1014.8 hPa South 6.4 km/h 12.9 km/h 96 % 0 mm
07:46 19.1 °C 18.4 °C 1014.8 hPa SSE 6.4 km/h 14.5 km/h 96 % 0 mm
07:51 19.1 °C 18.4 °C 1014.8 hPa SE 4.8 km/h 14.5 km/h 96 % 0 mm
07:56 19.1 °C 18.4 °C 1014.8 hPa SE 1.6 km/h 14.5 km/h 96 % 0 mm
08:01 19.1 °C 18.4 °C 1014.8 hPa ESE 11.3 km/h 14.5 km/h 96 % 0 mm
08:06 19.1 °C 18.4 °C 1015.1 hPa SSE 8 km/h 12.9 km/h 96 % 0 mm
08:11 19 °C 18.3 °C 1014.8 hPa SE 11.3 km/h 12.9 km/h 96 % 0 mm
08:16 19 °C 18.3 °C 1015.1 hPa South 8 km/h 12.9 km/h 96 % 0 mm
08:21 19 °C 18.3 °C 1015.1 hPa SSE 6.4 km/h 12.9 km/h 96 % 0 mm
08:26 19.1 °C 18.4 °C 1015.1 hPa SE 4.8 km/h 12.9 km/h 96 % 0 mm
08:31 19.1 °C 18.4 °C 1015.5 hPa SE 3.2 km/h 12.9 km/h 96 % 0 mm
08:36 19.1 °C 18.4 °C 1015.5 hPa SSE 4.8 km/h 12.9 km/h 96 % 0 mm
08:41 19.2 °C 18.5 °C 1015.5 hPa SSE 8 km/h 14.5 km/h 96 % 0 mm
08:46 19.2 °C 18.5 °C 1015.5 hPa ESE 11.3 km/h 14.5 km/h 96 % 0 mm
08:51 19.3 °C 18.6 °C 1015.5 hPa South 9.7 km/h 14.5 km/h 96 % 0 mm
08:56 19.3 °C 18.5 °C 1015.5 hPa ESE 4.8 km/h 16.1 km/h 95 % 0 mm
09:01 19.4 °C 18.6 °C 1015.5 hPa SE 12.9 km/h 19.3 km/h 95 % 0 mm
09:06 19.6 °C 18.8 °C 1015.5 hPa SE 9.7 km/h 19.3 km/h 95 % 0 mm
09:11 19.7 °C 18.9 °C 1015.5 hPa SSE 16.1 km/h 19.3 km/h 95 % 0 mm
09:17 19.8 °C 19 °C 1015.5 hPa SSE 17.7 km/h 20.9 km/h 95 % 0 mm
09:22 19.9 °C 18.9 °C 1015.8 hPa SSE 9.7 km/h 20.9 km/h 94 % 0 mm
09:27 20 °C 18.8 °C 1015.8 hPa SE 9.7 km/h 20.9 km/h 93 % 0 mm
09:32 20.1 °C 18.9 °C 1015.8 hPa SSE 8 km/h 19.3 km/h 93 % 0 mm
09:37 20.2 °C 18.9 °C 1015.8 hPa SE 9.7 km/h 19.3 km/h 92 % 0 mm
09:42 20.3 °C 19 °C 1015.8 hPa SE 11.3 km/h 19.3 km/h 92 % 0 mm
09:47 20.3 °C 19 °C 1015.8 hPa SSE 9.7 km/h 20.9 km/h 92 % 0 mm
09:52 20.4 °C 19.1 °C 1015.8 hPa ESE 8 km/h 20.9 km/h 92 % 0 mm
09:57 20.5 °C 19 °C 1016.1 hPa South 9.7 km/h 20.9 km/h 91 % 0 mm
10:02 20.6 °C 19.1 °C 1016.1 hPa South 6.4 km/h 17.7 km/h 91 % 0 mm
10:07 20.6 °C 19.1 °C 1016.1 hPa SE 14.5 km/h 19.3 km/h 91 % 0 mm
10:12 20.6 °C 19.1 °C 1015.8 hPa SSE 4.8 km/h 19.3 km/h 91 % 0 mm
10:17 20.7 °C 19.2 °C 1015.8 hPa SE 11.3 km/h 19.3 km/h 91 % 0 mm
10:22 20.7 °C 19.2 °C 1015.8 hPa SSE 8 km/h 19.3 km/h 91 % 0 mm
10:27 20.9 °C 19.4 °C 1015.8 hPa SSE 17.7 km/h 19.3 km/h 91 % 0 mm
10:32 21.1 °C 19.4 °C 1015.8 hPa SE 6.4 km/h 19.3 km/h 90 % 0 mm
10:37 21.2 °C 19.5 °C 1015.8 hPa SE 4.8 km/h 19.3 km/h 90 % 0 mm
10:42 21.3 °C 19.4 °C 1015.5 hPa South 6.4 km/h 19.3 km/h 89 % 0 mm
10:47 21.3 °C 19.4 °C 1015.5 hPa SSW 8 km/h 16.1 km/h 89 % 0 mm
10:52 21.3 °C 19.4 °C 1015.5 hPa SSW 4.8 km/h 20.9 km/h 89 % 0 mm
10:57 21.4 °C 19.5 °C 1015.5 hPa South 4.8 km/h 20.9 km/h 89 % 0 mm
11:02 21.7 °C 19.8 °C 1015.5 hPa SSE 11.3 km/h 20.9 km/h 89 % 0 mm
11:07 21.9 °C 19.6 °C 1015.5 hPa SSE 4.8 km/h 16.1 km/h 87 % 0 mm
11:12 22.1 °C 19.8 °C 1015.5 hPa SE 8 km/h 17.7 km/h 87 % 0 mm
11:17 22.3 °C 19.7 °C 1015.1 hPa SE 9.7 km/h 17.7 km/h 85 % 0 mm
11:22 22.3 °C 19.7 °C 1015.1 hPa SSE 11.3 km/h 17.7 km/h 85 % 0 mm
11:27 22.4 °C 19.6 °C 1015.1 hPa South 16.1 km/h 25.7 km/h 84 % 0 mm
11:32 22.4 °C 19.6 °C 1015.1 hPa SSW 9.7 km/h 25.7 km/h 84 % 0 mm
11:37 22.4 °C 19.6 °C 1014.8 hPa South 14.5 km/h 29 km/h 84 % 0 mm
11:42 22.4 °C 19.6 °C 1014.8 hPa SSE 8 km/h 29 km/h 84 % 0 mm
11:47 22.7 °C 20 °C 1014.4 hPa SE 11.3 km/h 29 km/h 85 % 0 mm
11:52 22.9 °C 19.7 °C 1014.4 hPa South 12.9 km/h 25.7 km/h 82 % 0 mm
11:57 23 °C 19.6 °C 1014.4 hPa SSE 14.5 km/h 22.5 km/h 81 % 0 mm
12:02 23 °C 19.6 °C 1014.1 hPa SE 12.9 km/h 22.5 km/h 81 % 0 mm
12:07 23.2 °C 19.8 °C 1014.1 hPa South 14.5 km/h 22.5 km/h 81 % 0 mm
12:12 23.2 °C 19.8 °C 1013.8 hPa SE 8 km/h 20.9 km/h 81 % 0 mm
12:17 23.4 °C 19.8 °C 1013.8 hPa SSE 9.7 km/h 20.9 km/h 80 % 0 mm
12:22 23.5 °C 19.4 °C 1013.4 hPa SSE 19.3 km/h 27.4 km/h 78 % 0 mm
12:27 23.5 °C 19.4 °C 1013.4 hPa SSW 16.1 km/h 37 km/h 78 % 0 mm
12:32 23.5 °C 19.4 °C 1013.1 hPa South 9.7 km/h 41.8 km/h 78 % 0 mm
12:37 23.7 °C 19.4 °C 1013.1 hPa SSE 20.9 km/h 41.8 km/h 77 % 0 mm
12:42 23.8 °C 19.5 °C 1013.1 hPa East 11.3 km/h 41.8 km/h 77 % 0 mm
12:47 23.9 °C 19.4 °C 1012.8 hPa SW 12.9 km/h 29 km/h 76 % 0 mm
12:52 23.8 °C 19.3 °C 1012.8 hPa South 14.5 km/h 29 km/h 76 % 0 mm
12:57 23.7 °C 19.2 °C 1012.8 hPa SSE 9.7 km/h 29 km/h 76 % 0 mm
13:02 23.7 °C 19.2 °C 1012.8 hPa South 17.7 km/h 30.6 km/h 76 % 0 mm
13:07 23.6 °C 19.3 °C 1012.8 hPa SSE 11.3 km/h 30.6 km/h 77 % 0 mm
13:12 23.6 °C 19.3 °C 1012.4 hPa South 14.5 km/h 30.6 km/h 77 % 0 mm
13:17 23.6 °C 19.3 °C 1012.4 hPa SSW 12.9 km/h 27.4 km/h 77 % 0 mm
13:22 23.7 °C 19.4 °C 1012.4 hPa SSW 17.7 km/h 27.4 km/h 77 % 0 mm
13:27 23.6 °C 19.3 °C 1012.1 hPa SSW 9.7 km/h 27.4 km/h 77 % 0 mm
13:32 23.6 °C 19.3 °C 1012.1 hPa SSE 9.7 km/h 27.4 km/h 77 % 0 mm
13:37 23.7 °C 19.4 °C 1012.1 hPa SSE 11.3 km/h 27.4 km/h 77 % 0 mm
13:42 23.6 °C 19.3 °C 1011.7 hPa SSE 16.1 km/h 27.4 km/h 77 % 0 mm
13:47 23.4 °C 19.1 °C 1011.7 hPa ESE 11.3 km/h 30.6 km/h 77 % 0 mm
13:52 23.5 °C 19.4 °C 1011.7 hPa SE 14.5 km/h 30.6 km/h 78 % 0 mm
13:57 23.4 °C 19.3 °C 1011.7 hPa ESE 17.7 km/h 30.6 km/h 78 % 0 mm
14:02 23.3 °C 19.2 °C 1011.7 hPa SE 9.7 km/h 27.4 km/h 78 % 0 mm
14:07 23.1 °C 19.3 °C 1011.7 hPa SE 8 km/h 24.1 km/h 79 % 0 mm
14:12 23 °C 19.2 °C 1011.4 hPa SE 9.7 km/h 25.7 km/h 79 % 0 mm
14:22 22.9 °C 19.1 °C 1011.4 hPa SSE 11.3 km/h 25.7 km/h 79 % 0 mm
14:27 22.9 °C 19.1 °C 1011.7 hPa SE 17.7 km/h 22.5 km/h 79 % 0 mm
14:32 22.9 °C 18.9 °C 1011.4 hPa South 17.7 km/h 25.7 km/h 78 % 0 mm
14:37 22.9 °C 19.1 °C 1011.4 hPa SSE 19.3 km/h 37 km/h 79 % 0 mm
14:42 23 °C 19.2 °C 1011.4 hPa SSW 14.5 km/h 37 km/h 79 % 0 mm
14:52 22.9 °C 18.9 °C 1011.7 hPa SE 9.7 km/h 25.7 km/h 78 % 0 mm
15:02 22.7 °C 18.9 °C 1011.7 hPa SSE 12.9 km/h 24.1 km/h 79 % 0 mm
15:12 22.6 °C 19 °C 1011.7 hPa SSE 8 km/h 24.1 km/h 80 % 0 mm
15:17 22.5 °C 18.9 °C 1011.7 hPa SSE 6.4 km/h 22.5 km/h 80 % 0 mm
15:22 22.4 °C 19 °C 1011.7 hPa SE 9.7 km/h 22.5 km/h 81 % 0 mm
15:27 22.4 °C 19 °C 1011.7 hPa SSE 8 km/h 17.7 km/h 81 % 0 mm
15:32 22.3 °C 19.1 °C 1011.4 hPa South 24.1 km/h 24.1 km/h 82 % 0 mm
15:37 22.1 °C 19.1 °C 1011.7 hPa South 14.5 km/h 25.7 km/h 83 % 0 mm
15:42 22 °C 19.2 °C 1011.4 hPa SE 14.5 km/h 25.7 km/h 84 % 0 mm
15:47 21.9 °C 19.1 °C 1011.4 hPa SE 12.9 km/h 25.7 km/h 84 % 0 mm
15:52 21.8 °C 19.2 °C 1011.4 hPa SSE 6.4 km/h 24.1 km/h 85 % 0 mm
16:02 21.8 °C 19.2 °C 1011.4 hPa SSE 9.7 km/h 22.5 km/h 85 % 0 mm
16:07 21.7 °C 19.3 °C 1011.7 hPa SSE 11.3 km/h 19.3 km/h 86 % 0 mm
16:12 21.6 °C 19.3 °C 1011.7 hPa SE 6.4 km/h 19.3 km/h 87 % 0 mm
16:17 21.5 °C 19.2 °C 1011.4 hPa SE 8 km/h 19.3 km/h 87 % 0 mm
16:22 21.4 °C 19.3 °C 1011.4 hPa SSE 4.8 km/h 19.3 km/h 88 % 0 mm
16:27 21.4 °C 19.3 °C 1011.4 hPa SSE 11.3 km/h 19.3 km/h 88 % 0 mm
16:32 21.4 °C 19.3 °C 1011.4 hPa South 8 km/h 17.7 km/h 88 % 0 mm
16:37 21.3 °C 19.4 °C 1011.4 hPa SE 14.5 km/h 19.3 km/h 89 % 0 mm
16:47 21.2 °C 19.5 °C 1011.4 hPa SSE 6.4 km/h 19.3 km/h 90 % 0 mm
16:52 21.1 °C 19.4 °C 1011.7 hPa SE 12.9 km/h 19.3 km/h 90 % 0 mm
16:57 21.1 °C 19.4 °C 1011.7 hPa South 9.7 km/h 19.3 km/h 90 % 0 mm
17:07 21.1 °C 19.4 °C 1011.1 hPa SE 14.5 km/h 19.3 km/h 90 % 0 mm
17:17 21 °C 19.3 °C 1011.1 hPa SE 8 km/h 20.9 km/h 90 % 0 mm
17:22 21 °C 19.5 °C 1011.1 hPa SE 8 km/h 20.9 km/h 91 % 0 mm
17:27 20.9 °C 19.4 °C 1011.4 hPa SSE 14.5 km/h 19.3 km/h 91 % 0 mm
17:32 21 °C 19.5 °C 1011.4 hPa SE 9.7 km/h 22.5 km/h 91 % 0 mm
17:42 21 °C 19.5 °C 1011.7 hPa SE 4.8 km/h 22.5 km/h 91 % 0 mm
17:47 20.9 °C 19.4 °C 1011.7 hPa SE 4.8 km/h 16.1 km/h 91 % 0 mm
17:52 20.9 °C 19.4 °C 1011.7 hPa South 6.4 km/h 14.5 km/h 91 % 0 mm
17:57 21 °C 19.5 °C 1011.7 hPa ESE 8 km/h 16.1 km/h 91 % 0 mm
18:02 20.9 °C 19.4 °C 1011.4 hPa SE 11.3 km/h 16.1 km/h 91 % 0 mm
18:07 20.9 °C 19.4 °C 1011.4 hPa SE 9.7 km/h 22.5 km/h 91 % 0 mm
18:12 20.9 °C 19.4 °C 1011.4 hPa SSW 11.3 km/h 22.5 km/h 91 % 0 mm
18:17 20.9 °C 19.4 °C 1011.1 hPa SE 11.3 km/h 22.5 km/h 91 % 0 mm
18:22 20.9 °C 19.6 °C 1011.1 hPa ESE 9.7 km/h 20.9 km/h 92 % 0 mm
18:26 20.9 °C 19.6 °C 1011.1 hPa SE 11.3 km/h 20.9 km/h 92 % 0 mm
18:32 20.9 °C 19.6 °C 1011.4 hPa SSE 8 km/h 20.9 km/h 92 % 0 mm
18:37 20.9 °C 19.6 °C 1011.1 hPa ESE 9.7 km/h 20.9 km/h 92 % 0 mm
18:42 20.9 °C 19.6 °C 1010.7 hPa South 6.4 km/h 27.4 km/h 92 % 0 mm
18:47 20.9 °C 19.6 °C 1011.1 hPa South 6.4 km/h 27.4 km/h 92 % 0 mm
18:52 20.9 °C 19.6 °C 1011.1 hPa SSE 3.2 km/h 27.4 km/h 92 % 0 mm
18:57 20.9 °C 19.6 °C 1011.1 hPa SE 8 km/h 19.3 km/h 92 % 0 mm
19:02 20.9 °C 19.7 °C 1010.7 hPa SSE 14.5 km/h 20.9 km/h 93 % 0 mm
19:07 20.9 °C 19.7 °C 1011.1 hPa South 4.8 km/h 20.9 km/h 93 % 0 mm
19:12 20.9 °C 19.7 °C 1011.1 hPa SW 17.7 km/h 20.9 km/h 93 % 0 mm
19:17 20.9 °C 19.7 °C 1011.4 hPa South 8 km/h 19.3 km/h 93 % 0 mm
19:22 20.9 °C 19.7 °C 1011.4 hPa South 6.4 km/h 24.1 km/h 93 % 0 mm
19:27 20.9 °C 19.7 °C 1011.4 hPa SW 16.1 km/h 24.1 km/h 93 % 0 mm
19:32 20.9 °C 19.7 °C 1011.7 hPa SSE 12.9 km/h 24.1 km/h 93 % 0 mm
19:37 21 °C 19.8 °C 1011.7 hPa SSW 9.7 km/h 24.1 km/h 93 % 0 mm
19:42 20.9 °C 19.7 °C 1011.7 hPa South 9.7 km/h 24.1 km/h 93 % 0 mm
19:47 20.9 °C 19.7 °C 1011.4 hPa SE 17.7 km/h 24.1 km/h 93 % 0 mm
19:52 20.9 °C 19.7 °C 1011.7 hPa South 6.4 km/h 20.9 km/h 93 % 0 mm
19:57 20.9 °C 19.7 °C 1011.7 hPa ENE 3.2 km/h 20.9 km/h 93 % 0 mm
20:02 20.9 °C 19.7 °C 1011.7 hPa SSE 11.3 km/h 20.9 km/h 93 % 0 mm
20:07 20.9 °C 19.7 °C 1011.7 hPa SE 11.3 km/h 17.7 km/h 93 % 0 mm
20:12 20.9 °C 19.7 °C 1011.7 hPa SW 16.1 km/h 22.5 km/h 93 % 0 mm
20:17 20.9 °C 19.7 °C 1011.7 hPa SSE 11.3 km/h 22.5 km/h 93 % 0 mm
20:22 20.9 °C 19.7 °C 1011.7 hPa South 8 km/h 22.5 km/h 93 % 0 mm
20:27 20.9 °C 19.7 °C 1011.7 hPa SSE 9.7 km/h 22.5 km/h 93 % 0 mm
20:32 20.9 °C 19.7 °C 1011.7 hPa SSE 4.8 km/h 19.3 km/h 93 % 0 mm
20:37 20.8 °C 19.6 °C 1011.7 hPa South 14.5 km/h 19.3 km/h 93 % 0 mm
20:42 20.8 °C 19.6 °C 1011.7 hPa South 12.9 km/h 25.7 km/h 93 % 0 mm
20:47 20.8 °C 19.6 °C 1011.7 hPa South 8 km/h 25.7 km/h 93 % 0 mm
20:52 20.8 °C 19.8 °C 1011.7 hPa SE 8 km/h 25.7 km/h 94 % 0 mm
20:57 20.7 °C 19.7 °C 1011.7 hPa SE 11.3 km/h 20.9 km/h 94 % 0 mm
21:02 20.7 °C 19.7 °C 1011.4 hPa SE 9.7 km/h 16.1 km/h 94 % 0 mm
21:07 20.7 °C 19.7 °C 1011.7 hPa SSE 9.7 km/h 16.1 km/h 94 % 0 mm
21:12 20.7 °C 19.7 °C 1011.7 hPa SE 11.3 km/h 16.1 km/h 94 % 0 mm
21:17 20.6 °C 19.8 °C 1011.4 hPa SE 8 km/h 17.7 km/h 95 % 0 mm
21:22 20.5 °C 19.7 °C 1011.4 hPa SE 6.4 km/h 19.3 km/h 95 % 0 mm
21:27 20.4 °C 19.6 °C 1011.7 hPa SE 11.3 km/h 19.3 km/h 95 % 0 mm
21:32 20.4 °C 19.7 °C 1011.4 hPa SE 8 km/h 19.3 km/h 96 % 0 mm
21:37 20.3 °C 19.6 °C 1011.7 hPa SW 9.7 km/h 19.3 km/h 96 % 0 mm
21:42 20.3 °C 19.6 °C 1011.7 hPa SW 12.9 km/h 22.5 km/h 96 % 0 mm
21:47 20.3 °C 19.6 °C 1011.7 hPa SSE 12.9 km/h 22.5 km/h 96 % 0 mm
21:57 20.3 °C 19.6 °C 1012.1 hPa SE 6.4 km/h 22.5 km/h 96 % 0 mm
22:02 20.3 °C 19.8 °C 1012.1 hPa SW 14.5 km/h 20.9 km/h 97 % 0 mm
22:07 20.3 °C 19.8 °C 1012.1 hPa SSW 9.7 km/h 20.9 km/h 97 % 0 mm
22:12 20.3 °C 19.8 °C 1012.1 hPa SW 6.4 km/h 17.7 km/h 97 % 0 mm
22:22 20.3 °C 19.8 °C 1012.1 hPa SSW 4.8 km/h 14.5 km/h 97 % 0 mm
22:27 20.2 °C 19.7 °C 1012.4 hPa SSW 6.4 km/h 14.5 km/h 97 % 0 mm
22:32 20.2 °C 19.5 °C 1012.1 hPa SSW 1.6 km/h 14.5 km/h 96 % 0 mm
22:37 20.2 °C 19.5 °C 1012.1 hPa SW 8 km/h 11.3 km/h 96 % 0 mm
22:47 20.1 °C 19.4 °C 1011.7 hPa SSW 6.4 km/h 14.5 km/h 96 % 0 mm
22:52 20.1 °C 19.6 °C 1011.7 hPa SSE 6.4 km/h 16.1 km/h 97 % 0 mm
22:57 20.1 °C 19.4 °C 1011.1 hPa SSE 4.8 km/h 16.1 km/h 96 % 0 mm
23:02 20.1 °C 19.6 °C 1011.1 hPa SSW 8 km/h 17.7 km/h 97 % 0 mm
23:07 20.1 °C 19.6 °C 1011.1 hPa South 8 km/h 17.7 km/h 97 % 0 mm
23:22 20 °C 19.5 °C 1011.4 hPa SSW 4.8 km/h 16.1 km/h 97 % 0 mm
23:27 20 °C 19.5 °C 1011.7 hPa SW 1.6 km/h 14.5 km/h 97 % 0 mm
23:37 19.9 °C 19.4 °C 1011.7 hPa South 3.2 km/h 14.5 km/h 97 % 0 mm
23:42 19.9 °C 19.4 °C 1011.7 hPa SSE 8 km/h 9.7 km/h 97 % 0 mm
23:47 19.9 °C 19.4 °C 1011.7 hPa SSE 4.8 km/h 11.3 km/h 97 % 0 mm
23:52 19.9 °C 19.4 °C 1011.7 hPa SSE 9.7 km/h 11.3 km/h 97 % 0 mm
23:57 19.9 °C 19.4 °C 1011.7 hPa SW 1.6 km/h 11.3 km/h 97 % 0 mm
Spring, Texas: Villages of Bridgestone
Compliments of Weather Underground - 2.75 mb

Script developed by  Jim McMurry - jmcmurry@mwt.net Adapted for the template by  Wim van der Kuil - Leuven-Template.eu

You find our weather info also at:

UK Metoffice

WeatherCloud

Weather Underground

Mid-South Weather Network

AWEKAS

Citizen Weather Observer Program (CWOP)

HAMweather, WeatherForYou, PWS Weather

Equipment we use:

Weather-station
Davis Vantage Vue

Weather-program
Meteohub

Weather-server
Debian 7.9 x86 (Guest)

Provider
DreamHost

Davis Vantage Vue

Meteohub

Debian 7.9 x86 (Guest)

DreamHost